{"data":{"norad_id":68903,"intl_designator":"2026-097J","name":"STARLINK-37567","alt_names":[],"object_type":"PAYLOAD","status":"ACTIVE","operator":null,"country":"US","launch_date":"2026-04-30","launch_site_code":"AFWTR","launch_vehicle":null,"mission":null,"orbit_class":"UNKNOWN","rcs_meters":null,"size_class":null,"mass_kg":null,"dimensions":null,"purposes":["comms"],"wikipedia_slug":null,"has_3d_model":false,"image_url":null,"decayed_at":null,"tle_current":{"epoch":"2026-05-25T02:36:21.617856Z","epoch_age_seconds":65811,"freshness":"FRESH","line1":"1 68903U 26097J   26145.10858354  .00043593  00000+0  79864-3 0  9992","line2":"2 68903  97.2864 340.8675 0002124  90.7425 269.4069 15.49192336  3948","mean_motion":15.49192336,"eccentricity":0.0002124,"inclination_deg":97.2864,"raan_deg":340.8675,"arg_perigee_deg":90.7425,"mean_anomaly_deg":269.4069,"bstar":0.00079864,"rev_number":394,"period_min":92.951660457995,"perigee_km":417.64377977126,"apogee_km":420.53124074322,"semimajor_km":6797.2245102572,"source":"CELESTRAK","updated_at":"2026-05-25T13:38:22.067886Z"}}}